Location: ???????????
(54.6970°N, 39.1477°E)
Time: 07:20:43
(UTC+00:00)

Cosmos 1151 Rocket - Pass Details

Date: 19 May 2025
Orbit: 586 x 607 km, 82.5° (Epoch: 16 June)

Event Time Altitude Azimuth Distance (km) Brightness Sun altitude
Exits shadow 20:42:52 25° 152° (SSE) 1,205 4.0 -14.9°
Maximum altitude 20:44:56 45° 94° (E) 811 3.5 -15.0°
Drops below altitude 10° 20:48:58 10° 22° (NNE) 1,924 6.5 -15.0°
Sets 20:51:15 0° 16° (NNE) 2,830 7.7 -15.1°
